Weather History for Winchester, VA

Change the Weather History Date:

Monday, October 22, 2012

  Actual Average Record
Temperature  
Mean Temperature 52 °F -  
Max Temperature 69 °F 61 °F 82 °F (1984)
Min Temperature 35 °F 41 °F 29 °F (1991)
Degree Days  
Heating Degree Days 13    
Growing Degree Days 2 (Base 50)    
Moisture  
Dew Point 43 °F    
Average Humidity 73    
Maximum Humidity 100    
Minimum Humidity 43    
Precipitation  
Precipitation 0.00 in - - ()
Sea Level Pressure  
Sea Level Pressure 30.15 in    
Wind  
Wind Speed 1 mph (SSW)    
Max Wind Speed 8 mph    
Max Gust Speed -    
Visibility 10 miles    
Events      
Averages and records for this station are not official NWS values.
T = Trace of Precipitation, MM = Missing Value Source: NWS Daily Summary

Daily Weather History Graph

Daily Weather History Graph

Search for Another Location

Airport:

Trip Planner

Search our weather history database for the weather conditions in past years. The results will help you decide how hot, cold, wet, or windy it might be!

Date:

Astronomy

Oct. 22, 2012 Rise Set
Actual Time 7:29 AM EDT 6:23 PM EDT
Civil Twilight 7:02 AM EDT 6:50 PM EDT
Nautical Twilight 6:31 AM EDT 7:21 PM EDT
Astronomical Twilight 6:00 AM EDT 7:52 PM EDT
Moon 2:27 PM EDT (10/22) 12:17 AM EDT (10/22)
Length of Visible Light 11h 47m
Length of Day
10h 53m
First Quarter, 56% of the Moon is Illuminated
Oct 22
First Quarter
Oct 29
Full
Nov 6
Last Quarter
Nov 13
New
Nov 20
First Quarter

Hourly Weather History & Observations

Time (EDT) Temp. Windchill Dew Point Humidity Pressure Visibility Wind Dir Wind Speed Gust Speed Precip Events Conditions
12:35 AM 41.0 °F - 37.4 °F 87% 30.15 in 10.0 mi Calm Calm - N/A   Clear
12:55 AM 39.2 °F - 37.4 °F 93% 30.14 in 10.0 mi Calm Calm - N/A   Clear
1:15 AM 41.0 °F - 37.4 °F 87% 30.15 in 10.0 mi Calm Calm - N/A   Clear
1:35 AM 41.0 °F - 37.4 °F 87% 30.15 in 10.0 mi Calm Calm - N/A   Mostly Cloudy
1:55 AM 39.2 °F - 37.4 °F 93% 30.15 in 10.0 mi Calm Calm - N/A   Scattered Clouds
2:35 AM 39.2 °F - 37.4 °F 93% 30.15 in 10.0 mi Calm Calm - N/A   Overcast
2:55 AM 37.4 °F - 37.4 °F 100% 30.16 in 10.0 mi Calm Calm - N/A   Scattered Clouds
3:35 AM 35.6 °F - 35.6 °F 100% 30.16 in 10.0 mi Calm Calm - N/A   Clear
3:55 AM 37.4 °F - 37.4 °F 100% 30.16 in 10.0 mi Calm Calm - N/A   Clear
4:15 AM 37.4 °F - 37.4 °F 100% 30.16 in 10.0 mi Calm Calm - N/A   Clear
4:55 AM 37.4 °F - 37.4 °F 100% 30.16 in 10.0 mi Calm Calm - N/A   Clear
5:15 AM 35.6 °F - 35.6 °F 100% 30.17 in 10.0 mi Calm Calm - N/A   Clear
5:35 AM 35.6 °F - 35.6 °F 100% 30.17 in 10.0 mi Calm Calm - N/A   Scattered Clouds
5:55 AM 35.6 °F - 35.6 °F 100% 30.18 in 10.0 mi Calm Calm - N/A   Scattered Clouds
6:15 AM 35.6 °F - 35.6 °F 100% 30.18 in 10.0 mi Calm Calm - N/A   Clear
6:35 AM 35.6 °F - 35.6 °F 100% 30.18 in 10.0 mi Calm Calm - N/A   Clear
6:55 AM 35.6 °F - 35.6 °F 100% 30.19 in 10.0 mi Calm Calm - N/A   Clear
7:15 AM 37.4 °F - 37.4 °F 100% 30.20 in 10.0 mi Calm Calm - N/A   Clear
7:55 AM 37.4 °F 34.9 °F 37.4 °F 100% 30.20 in 10.0 mi South 3.5 mph - N/A   Scattered Clouds
8:15 AM 39.2 °F 37.0 °F 37.4 °F 93% 30.20 in 10.0 mi South 3.5 mph - N/A   Scattered Clouds
8:35 AM 41.0 °F 39.0 °F 39.2 °F 93% 30.21 in 10.0 mi SSW 3.5 mph - N/A   Scattered Clouds
8:55 AM 42.8 °F 40.1 °F 41.0 °F 93% 30.22 in 10.0 mi SSW 4.6 mph - N/A   Scattered Clouds
9:35 AM 48.2 °F - 41.0 °F 76% 30.22 in 10.0 mi SW 5.8 mph - N/A   Scattered Clouds
9:55 AM 51.8 °F - 42.8 °F 71% 30.22 in 10.0 mi SSW 5.8 mph - N/A   Scattered Clouds
10:35 AM 55.4 °F - 42.8 °F 63% 30.21 in 10.0 mi SW 6.9 mph - N/A   Scattered Clouds
10:55 AM 57.2 °F - 42.8 °F 59% 30.20 in 10.0 mi WSW 8.1 mph - N/A   Scattered Clouds
11:15 AM 59.0 °F - 42.8 °F 55% 30.20 in 10.0 mi SSW 6.9 mph - N/A   Scattered Clouds
11:35 AM 60.8 °F - 42.8 °F 52% 30.20 in 10.0 mi SSW 8.1 mph - N/A   Scattered Clouds
11:55 AM 62.6 °F - 42.8 °F 48% 30.20 in 10.0 mi WSW 6.9 mph - N/A   Scattered Clouds
12:15 PM 62.6 °F - 44.6 °F 52% 30.19 in 10.0 mi SSW 5.8 mph - N/A   Clear
12:35 PM 64.4 °F - 44.6 °F 49% 30.19 in 10.0 mi SSW 4.6 mph - N/A   Scattered Clouds
12:55 PM 64.4 °F - 44.6 °F 49% 30.17 in 10.0 mi WSW 3.5 mph - N/A   Scattered Clouds
1:15 PM 64.4 °F - 44.6 °F 49% 30.17 in 10.0 mi Calm Calm - N/A   Clear
1:35 PM 66.2 °F - 44.6 °F 46% 30.16 in 10.0 mi WNW 5.8 mph - N/A   Scattered Clouds
1:55 PM 68.0 °F - 46.4 °F 46% 30.15 in 4.0 mi Calm Calm - N/A   Haze
2:15 PM 68.0 °F - 46.4 °F 46% 30.15 in 10.0 mi Calm Calm - N/A   Clear
2:35 PM 68.0 °F - 46.4 °F 46% 30.13 in 2.0 mi Calm Calm - N/A   Haze
2:55 PM 69.8 °F - 46.4 °F 43% 30.13 in 10.0 mi SE 3.5 mph - N/A   Clear
3:15 PM 69.8 °F - 48.2 °F 46% 30.12 in 10.0 mi South 3.5 mph - N/A   Clear
3:35 PM 69.8 °F - 46.4 °F 43% 30.11 in 10.0 mi South 3.5 mph - N/A   Clear
3:55 PM 69.8 °F - 46.4 °F 43% 30.12 in 10.0 mi SE 3.5 mph - N/A   Scattered Clouds
4:15 PM 69.8 °F - 46.4 °F 43% 30.11 in 10.0 mi SSW 4.6 mph - N/A   Clear
4:35 PM 69.8 °F - 48.2 °F 46% 30.11 in 10.0 mi SE 5.8 mph - N/A   Clear
4:55 PM 69.8 °F - 48.2 °F 46% 30.10 in 10.0 mi SSE 4.6 mph - N/A   Clear
5:15 PM 68.0 °F - 48.2 °F 49% 30.11 in 10.0 mi SE 5.8 mph - N/A   Scattered Clouds
5:35 PM 68.0 °F - 48.2 °F 49% 30.11 in 10.0 mi SSE 3.5 mph - N/A   Scattered Clouds
5:55 PM 64.4 °F - 48.2 °F 56% 30.11 in 10.0 mi Calm Calm - N/A   Clear
6:15 PM 62.6 °F - 50.0 °F 63% 30.11 in 10.0 mi Calm Calm - N/A   Scattered Clouds
6:35 PM 59.0 °F - 50.0 °F 72% 30.11 in 10.0 mi Calm Calm - N/A   Scattered Clouds
6:55 PM 59.0 °F - 48.2 °F 67% 30.12 in 10.0 mi Calm Calm - N/A   Scattered Clouds
7:15 PM 55.4 °F - 48.2 °F 77% 30.12 in 10.0 mi Calm Calm - N/A   Scattered Clouds
7:35 PM 55.4 °F - 46.4 °F 72% 30.13 in 10.0 mi Calm Calm - N/A   Scattered Clouds
7:55 PM 53.6 °F - 48.2 °F 82% 30.13 in 10.0 mi Calm Calm - N/A   Scattered Clouds
8:35 PM 53.6 °F - 46.4 °F 77% 30.13 in 10.0 mi Calm Calm - N/A   Clear
9:35 PM 53.6 °F - 46.4 °F 77% 30.13 in 10.0 mi Calm Calm - N/A   Scattered Clouds
9:55 PM 53.6 °F - 46.4 °F 77% 30.13 in 10.0 mi Calm Calm - N/A   Clear
10:15 PM 51.8 °F - 46.4 °F 82% 30.13 in 10.0 mi Calm Calm - N/A   Mostly Cloudy
10:55 PM 51.8 °F - 46.4 °F 82% 30.12 in 10.0 mi Calm Calm - N/A   Mostly Cloudy
11:35 PM 51.8 °F - 46.4 °F 82% 30.13 in 10.0 mi SW 3.5 mph - N/A   Clear
11:55 PM 53.6 °F - 46.4 °F 77% 30.12 in 10.0 mi Calm Calm - N/A   Clear